Total_Precipitation_Accumulation
0.65 0.50 0.46 0.55 0.46 0.33 0.25 0.17 0.09 0.05 0.02 0.01 0.01 0.01 0.01 0.03 0.04 0.07 0.09 0.15 0.21 0.18 0.15 0.13 0.09 0.04 0.05 0.10 0.15 0.22 0.28 0.36 0.46 0.46 0.35 0.30 0.25 0.17 0.12 0.09 0.10 0.05 0.03
0.79 0.71 0.56 0.61 0.70 0.64 0.47 0.28 0.17 0.08 0.04 0.02 0.01 0.01 0.01 0.01 0.01 0.03 0.04 0.09 0.18 0.20 0.22 0.26 0.21 0.12 0.10 0.13 0.17 0.20 0.24 0.27 0.35 0.40 0.37 0.33 0.32 0.26 0.20 0.16 0.15 0.09 0.07
0.90 0.86 0.64 0.59 0.68 0.81 0.72 0.48 0.28 0.15 0.07 0.03 0.02 0.02 0.02 0.01 0.01 0.01 0.02 0.03 0.09 0.19 0.29 0.40 0.40 0.29 0.20 0.19 0.16 0.16 0.19 0.22 0.26 0.33 0.38 0.35 0.31 0.28 0.24 0.20 0.20 0.17 0.14
0.93 0.96 0.82 0.71 0.77 0.86 0.92 0.85 0.56 0.32 0.16 0.07 0.04 0.03 0.03 0.02 0.02 0.01 0.02 0.02 0.04 0.09 0.20 0.31 0.45 0.56 0.41 0.23 0.15 0.13 0.12 0.13 0.15 0.20 0.26 0.26 0.21 0.20 0.21 0.22 0.25 0.27 0.25
0.89 1.04 1.05 0.97 0.93 1.00 0.98 0.96 0.78 0.51 0.30 0.17 0.08 0.06 0.04 0.02 0.02 0.02 0.01 0.01 0.02 0.03 0.07 0.10 0.21 0.31 0.31 0.32 0.29 0.16 0.11 0.09 0.08 0.10 0.13 0.13 0.12 0.13 0.17 0.20 0.25 0.25 0.25
1.13 1.25 1.29 1.23 1.17 1.15 1.05 1.08 1.08 0.74 0.48 0.33 0.19 0.11 0.07 0.04 0.03 0.02 0.01 0.01 0.02 0.01 0.01 0.02 0.07 0.06 0.11 0.24 0.25 0.12 0.08 0.07 0.07 0.06 0.07 0.07 0.07 0.08 0.12 0.16 0.18 0.20 0.22
1.34 1.46 1.54 1.54 1.41 1.24 1.19 1.26 1.41 1.19 0.81 0.55 0.42 0.28 0.16 0.08 0.05 0.04 0.03 0.02 0.01 0.01 0.00 0.01 0.03 0.04 0.04 0.04 0.06 0.11 0.13 0.13 0.11 0.08 0.07 0.05 0.05 0.05 0.07 0.09 0.12 0.14 0.17
1.44 1.50 1.68 1.75 1.64 1.55 1.58 1.50 1.55 1.57 1.25 0.89 0.77 0.77 0.55 0.35 0.15 0.07 0.05 0.03 0.03 0.03 0.02 0.02 0.02 0.02 0.02 0.04 0.02 0.04 0.08 0.13 0.12 0.08 0.06 0.06 0.05 0.03 0.03 0.04 0.07 0.09 0.12
1.62 1.59 1.69 1.86 1.77 1.69 1.66 1.75 1.87 1.97 1.76 1.42 1.12 1.05 0.82 0.66 0.54 0.21 0.10 0.08 0.07 0.06 0.07 0.05 0.04 0.04 0.03 0.02 0.02 0.02 0.02 0.03 0.08 0.09 0.08 0.07 0.05 0.04 0.05 0.05 0.05 0.06 0.07
1.56 1.53 1.64 1.83 1.94 1.99 1.98 2.01 1.92 2.05 2.08 1.80 1.63 1.26 0.95 0.76 0.75 0.59 0.32 0.17 0.13 0.09 0.09 0.09 0.07 0.07 0.05 0.03 0.04 0.03 0.02 0.02 0.06 0.09 0.10 0.09 0.07 0.05 0.04 0.04 0.05 0.05 0.06
1.65 1.55 1.59 1.65 1.68 1.73 1.82 1.93 1.92 2.02 2.02 2.01 1.92 1.71 1.40 1.12 0.74 0.64 0.63 0.45 0.26 0.14 0.10 0.10 0.12 0.11 0.09 0.08 0.09 0.05 0.02 0.03 0.05 0.10 0.12 0.10 0.08 0.07 0.05 0.04 0.04 0.05 0.05
1.62 1.53 1.48 1.56 1.58 1.57 1.66 1.75 1.81 1.94 2.00 2.01 1.96 1.76 1.56 1.41 1.18 0.92 0.74 0.64 0.56 0.34 0.21 0.16 0.15 0.18 0.19 0.18 0.16 0.13 0.06 0.04 0.05 0.09 0.11 0.13 0.11 0.09 0.08 0.06 0.05 0.06 0.06
1.27 1.27 1.20 1.24 1.35 1.39 1.55 1.58 1.51 1.53 1.63 1.72 1.80 1.78 1.67 1.51 1.41 1.25 1.08 0.90 0.71 0.46 0.32 0.24 0.20 0.23 0.30 0.32 0.31 0.27 0.12 0.09 0.07 0.08 0.10 0.11 0.11 0.10 0.10 0.09 0.09 0.09 0.10
0.98 0.94 0.94 0.93 0.98 1.05 1.23 1.40 1.36 1.37 1.40 1.43 1.48 1.60 1.62 1.57 1.51 1.29 1.13 1.06 0.88 0.68 0.47 0.33 0.25 0.23 0.28 0.33 0.42 0.39 0.22 0.17 0.13 0.12 0.12 0.11 0.09 0.08 0.09 0.11 0.11 0.11 0.11
0.75 0.73 0.75 0.83 0.87 0.85 0.92 1.01 1.17 1.23 1.24 1.29 1.29 1.35 1.35 1.36 1.34 1.20 1.14 1.05 0.89 0.72 0.61 0.49 0.38 0.30 0.30 0.30 0.36 0.35 0.27 0.23 0.18 0.16 0.12 0.09 0.10 0.09 0.09 0.09 0.08 0.07 0.07
0.67 0.67 0.63 0.64 0.68 0.68 0.77 0.84 0.88 0.97 1.00 1.13 1.26 1.33 1.30 1.28 1.24 1.15 1.10 1.09 0.97 0.76 0.63 0.55 0.44 0.37 0.38 0.35 0.39 0.38 0.36 0.34 0.22 0.17 0.13 0.12 0.11 0.09 0.08 0.06 0.04 0.03 0.03
0.51 0.52 0.54 0.57 0.56 0.57 0.57 0.56 0.59 0.65 0.70 0.78 0.80 0.86 1.03 1.16 1.16 1.15 1.13 1.12 1.08 0.92 0.73 0.69 0.52 0.48 0.50 0.45 0.44 0.39 0.38 0.39 0.32 0.25 0.20 0.17 0.14 0.11 0.09 0.08 0.05 0.03 0.02
0.43 0.44 0.48 0.51 0.50 0.56 0.58 0.55 0.53 0.52 0.58 0.65 0.66 0.65 0.71 0.85 0.94 1.01 1.07 1.07 1.08 1.04 0.90 0.87 0.80 0.63 0.58 0.54 0.56 0.55 0.47 0.46 0.47 0.45 0.39 0.29 0.21 0.16 0.12 0.09 0.06 0.03 0.02
0.55 0.57 0.56 0.60 0.57 0.59 0.58 0.57 0.56 0.54 0.53 0.58 0.62 0.63 0.65 0.67 0.75 0.81 0.92 1.00 1.04 1.07 1.00 0.86 0.91 0.87 0.71 0.64 0.58 0.55 0.53 0.57 0.55 0.51 0.53 0.49 0.40 0.30 0.23 0.17 0.13 0.08 0.05
0.51 0.52 0.58 0.66 0.73 0.78 0.77 0.73 0.67 0.61 0.54 0.56 0.62 0.65 0.63 0.61 0.68 0.84 0.95 1.00 0.99 0.97 0.98 0.94 0.94 0.93 0.81 0.67 0.60 0.59 0.64 0.68 0.65 0.53 0.46 0.47 0.46 0.40 0.32 0.26 0.20 0.16 0.13
0.43 0.44 0.51 0.59 0.67 0.76 0.81 0.79 0.64 0.53 0.52 0.54 0.53 0.54 0.58 0.62 0.63 0.71 0.83 0.99 0.96 0.96 0.95 0.95 0.92 0.83 0.71 0.60 0.59 0.61 0.62 0.69 0.63 0.60 0.55 0.48 0.45 0.40 0.35 0.30 0.26 0.24 0.20
0.37 0.39 0.42 0.40 0.41 0.46 0.60 0.57 0.45 0.37 0.41 0.48 0.52 0.56 0.55 0.52 0.51 0.52 0.52 0.68 0.79 0.87 0.92 0.88 0.85 0.78 0.71 0.63 0.67 0.63 0.53 0.51 0.53 0.58 0.49 0.52 0.46 0.42 0.42 0.38 0.40 0.42 0.37
0.33 0.35 0.30 0.26 0.25 0.28 0.33 0.30 0.34 0.37 0.39 0.40 0.47 0.56 0.63 0.57 0.57 0.61 0.53 0.52 0.54 0.57 0.63 0.67 0.71 0.68 0.66 0.60 0.60 0.59 0.54 0.49 0.42 0.41 0.35 0.38 0.39 0.36 0.35 0.32 0.29 0.28 0.28
0.28 0.35 0.30 0.27 0.29 0.25 0.28 0.31 0.31 0.33 0.44 0.48 0.50 0.51 0.60 0.63 0.65 0.74 0.69 0.68 0.58 0.49 0.47 0.46 0.53 0.53 0.48 0.53 0.57 0.65 0.65 0.49 0.37 0.31 0.25 0.23 0.24 0.23 0.20 0.19 0.18 0.15 0.14
0.19 0.18 0.22 0.36 0.35 0.30 0.37 0.36 0.28 0.30 0.39 0.46 0.46 0.50 0.58 0.64 0.80 0.85 0.83 0.79 0.65 0.52 0.52 0.57 0.57 0.56 0.54 0.55 0.55 0.58 0.57 0.49 0.42 0.39 0.31 0.22 0.18 0.16 0.13 0.11 0.10 0.09 0.08
0.09 0.09 0.13 0.25 0.32 0.32 0.31 0.21 0.22 0.30 0.37 0.46 0.49 0.51 0.69 0.70 0.78 0.77 0.74 0.79 0.74 0.57 0.48 0.52 0.51 0.50 0.47 0.50 0.58 0.60 0.65 0.65 0.53 0.45 0.35 0.27 0.24 0.22 0.20 0.16 0.10 0.07 0.06